Terminal Aerodrome Forecast
Issued by NWS Nashville, TN

Home | Current Version | Previous Version | Text Only | Print | Product List | Glossary On
Versions: 1 2 3 4 5 6 7 8 9 10 11 12 13 14 15 16 17 18 19 20 21 22 23 24 25 26 27
000
FTUS44 KOHX 161300 AAA
TAFBNA
TAF AMD
KBNA 161321Z 1613/1712 10012KT P6SM SKC
     FM162100 16007KT P6SM SCT250=

USA.gov is the U.S. government's official web portal to all federal, state and local government web resources and services.